#timestamp,LO_Frequency,Hit 
1500087615.9,286047002.7,N
1500087635.7,286047000.7,N
1500087655.6,286047002.0,N
1500087675.4,286047002.8,N
1500087695.2,286046996.8,N
1500087715.1,286046997.3,N
1500087716.0,286046997.3,N
1500087735.8,286046998.9,N
1500087755.6,286047000.7,N
1500087775.5,286047000.6,N
1500087795.3,286046999.3,N
1500087815.2,286046999.2,N
1500087835.9,286047000.8,N
1500087855.7,286047002.6,N
1500087875.6,286047002.8,N
1500087895.4,286047001.4,N
1500087915.2,286047004.0,N
1500087935.1,286047001.8,N
1500087936.0,286047001.8,N
1500087955.8,286047002.4,N
1500087975.7,286047002.2,N
1500087995.5,286047001.2,N
1500088015.3,286046998.8,N
1500088035.2,286046999.6,N
1500088055.0,286047001.2,N
1500088055.9,286047001.2,N
1500088075.7,286046998.2,N
1500088095.6,286046996.6,N
1500088115.4,286046997.3,N
1500088135.3,286046997.1,N
1500088155.1,286046999.3,N
1500088156.0,286046999.3,N
1500088175.8,286046998.6,N
1500088195.7,286046999.6,N
1500088215.5,286046999.6,N
1500088235.4,286046996.7,N
1500088255.2,286046997.8,N
1500088275.0,286046999.6,N
1500088275.9,286046999.6,N
1500088295.8,286047001.2,N
1500088315.6,286047002.8,N
1500088335.4,286047000.1,N
1500088355.3,286047000.7,N
1500088375.1,286046998.8,N
1500088395.9,286046999.4,N
1500088415.7,286046997.2,N
1500088435.5,286046996.6,N
1500088455.4,286047000.3,N
1500088475.2,286047000.1,N
1500088495.1,286046999.9,N
1500088496.0,286046999.9,N
1500088515.8,286046996.5,N
1500088535.6,286047000.2,N
1500088555.5,286047000.2,N
1500088575.3,286047002.7,N
1500088595.1,286047002.8,N
1500088615.9,286047002.5,N
1500088635.7,286047003.3,N
1500088655.6,286047004.0,N
1500088675.4,286047004.0,N
1500088695.2,286047004.3,N
1500088715.1,286047001.9,N
1500088716.0,286047001.9,N
1500088735.8,286047001.9,N
1500088755.7,286047003.8,N
1500088775.5,286047004.8,N
1500088795.3,286047006.8,N
1500088815.2,286047005.4,N
1500088835.0,286047001.5,N
1500088835.9,286047001.5,N
1500088855.7,286047002.2,N
1500088875.6,286046999.8,N
1500088895.4,286047001.0,N
1500088915.3,286046999.4,N
1500088935.1,286046998.6,N
1500088955.8,286047000.3,N
1500088975.7,286047004.1,N
1500088995.5,286047001.3,N
1500089015.4,286047003.9,N
1500089035.2,286047002.8,N
1500089055.0,286047000.1,N
1500089055.9,286047000.1,N
1500089075.8,286047000.6,N
1500089095.6,286047000.5,N
1500089115.5,286046999.9,N
1500089135.3,286047002.8,N
1500089155.1,286047002.8,N
1500089175.9,286047002.8,N
1500089195.7,286047002.3,N
1500089215.5,286047002.6,N
1500089235.4,286047002.6,N
1500089255.2,286047002.8,N
1500089275.1,286047004.4,N
1500089276.0,286047004.4,N
1500089295.8,286047004.1,N
1500089315.6,286047004.1,N
1500089335.5,286047002.7,N
1500089355.3,286047002.0,N
1500089375.1,286047001.7,N
1500089395.9,286047002.0,N
1500089415.7,286047001.8,N
1500089435.6,286046999.8,N
1500089455.4,286047000.3,N
1500089475.2,286047000.3,N
1500089495.1,286047000.4,N
1500089496.0,286047000.4,N
1500089515.8,286046999.9,N
1500089535.6,286047002.6,N
1500089555.5,286046999.9,N
1500089575.3,286046999.8,N
1500089595.2,286047000.1,N
1500089615.9,286047002.2,N
1500089635.7,286047002.5,N
1500089655.6,286047002.2,N
1500089675.4,286047001.6,N
1500089695.3,286047001.6,N
1500089715.1,286046999.9,N
1500089716.0,286046999.9,N
1500089735.8,286047000.9,N
1500089755.7,286047000.4,N
1500089775.5,286047000.4,N
1500089795.3,286047001.0,N
1500089815.2,286047000.5,N
1500089835.0,286046998.5,N
1500089835.9,286046998.5,N
1500089855.8,286047002.2,N
1500089875.6,286047000.1,N
1500089895.4,286047000.8,N
1500089915.3,286046998.3,N
1500089935.1,286047000.2,N
1500089955.9,286047000.9,N
1500089975.7,286046999.6,N
1500089995.5,286046999.5,N
1500090015.4,286046996.7,N
1500090035.2,286046998.1,N
1500090055.0,286046998.8,N
1500090055.9,286046998.8,N
1500090075.8,286047001.2,N
1500090095.6,286047000.0,N
1500090115.5,286047000.4,N
1500090135.3,286047000.3,N
1500090155.1,286047001.0,N
1500090175.9,286047002.3,N
1500090195.7,286046999.4,N
1500090215.5,286046996.8,N
1500090235.4,286046997.6,N
1500090255.2,286046997.2,N
1500090275.1,286046995.3,N
1500090276.0,286046995.3,N
1500090295.8,286046996.0,N
1500090315.6,286047011.9,N
1500090335.5,286046995.6,N
1500090355.3,286046997.8,N
1500090375.2,286046997.8,N
1500090395.9,286046995.1,N
1500090415.7,286046995.7,N
1500090435.6,286046995.9,N
1500090455.4,286046996.3,N
1500090475.3,286046995.1,N
1500090495.1,286046995.9,N
1500090496.0,286046995.9,N
1500090515.8,286046997.1,N
1500090535.7,286046996.7,N
1500090555.5,286046995.8,N
1500090575.3,286046994.9,N
1500090595.2,286046995.6,N
1500090615.0,286046996.4,N
1500090615.9,286046996.4,N
1500090635.8,286046993.5,N
1500090655.6,286046993.8,N
1500090675.4,286046994.1,N
1500090695.3,286046994.1,N
1500090715.1,286046996.1,N
1500090735.9,286046996.0,N
1500090755.7,286046994.8,N
1500090775.5,286046993.3,N
1500090795.4,286046993.5,N
1500090815.2,286046995.6,N
1500090835.0,286046997.9,N
1500090835.9,286046997.9,N
1500090855.8,286046997.0,N
1500090875.6,286046996.8,N
1500090895.5,286046997.2,N
1500090915.3,286046997.1,N
1500090935.1,286046997.7,N
1500090955.9,286046995.0,N
1500090975.7,286046995.7,N
1500090995.5,286046995.4,N
1500091015.4,286046997.5,N
1500091035.2,286046997.6,N
1500091055.1,286046996.4,N
1500091056.0,286046996.4,N
1500091075.8,286046993.7,N
1500091095.6,286046994.4,N
1500091115.8,286046990.2,N
1500091135.6,286046993.1,N
1500091155.5,286046992.9,N
1500091175.3,286046994.4,N
1500091195.2,286046995.8,N
